User: anonymous   Login
Location: Newark
(25.1987°N, 100.3705°W)
Time: 09:37:13
(UTC+00:00)
Language:

Envisat - Orbit

View from above orbital plane
View from above orbital plane
View from above satellite
View from above satellite

Ground track
Ground track

The orbit data is extracted from the following two-line orbital elements,

1 27386U 02009A   21293.89858366  .00000056  00000-0  32088-4 0  9993
2 27386  98.1600 281.6125 0001220  90.6007 326.0913 14.38048507 29032
Epoch (UTC): 20 October 2021 21:33:57
Eccentricity: 0.0001220
inclination: 98.1600°
perigee height: 764 km
apogee height: 766 km
right ascension of ascending node: 281.6125°
argument of perigee: 90.6007°
revolutions per day: 14.38048507
mean anomaly at epoch: 326.0913°
orbit number at epoch: 2903

The dashed part of the orbit path shows where the satellite is in the earth's shadow,  

DLR